This demonstration page uses our WeatherBlox Daily Observations layout. Learn more.

Left ArrowRight Arrow

44.89941, -97.11507

Hourly Observations for June 16, 2021

Temp ( °F °C ) Dew Point ( °F °C ) Humidity (%) Winds ( mph kmh ) Pressure ( in mb ) Visibility ( mi km ) Precip ( " mm )
12:53 am 00:53 Clear 70 21.1 52 11.1 53 53 SE 8 13 30.01 1016 10 16 0.00 0.00
1:53 am 01:53 Clear 69 20.6 53 11.7 57 57 SE 9 15 30.01 1016 10 16 0.00 0.00
2:53 am 02:53 Clear 67 19.4 53 11.7 61 61 SE 8 13 30.01 1016 10 16 0.00 0.00
3:53 am 03:53 Clear 67 19.4 53 11.7 61 61 SE 7 11 30.00 1016 10 16 0.00 0.00
4:53 am 04:53 Clear 67 19.4 52 11.1 59 59 SE 9 15 29.99 1016 10 16 0.00 0.00
5:53 am 05:53 Sunny 68 20 51 10.6 55 55 SE 12 19 29.97 1015 10 16 0.00 0.00
6:53 am 06:53 Sunny 69 20.6 52 11.1 55 55 SSE 15 24 29.96 1015 10 16 0.00 0.00
7:53 am 07:53 Sunny 70 21.1 53 11.7 55 55 SSE 15 24 29.95 1014 10 16 0.00 0.00
8:53 am 08:53 Sunny 74 23.3 54 12.2 50 50 SSE 13 20 29.93 1014 10 16 0.00 0.00
9:53 am 09:53 Sunny 79 26.1 55 12.8 44 44 SSE 20 31 29.91 1013 10 16 0.00 0.00
10:53 am 10:53 Sunny 84 28.9 57 13.9 40 40 S 21 33 29.89 1012 10 16 0.00 0.00
11:53 am 11:53 Mostly Sunny 82 27.8 57 13.9 42 42 SE 13 20 29.91 1013 10 16 0.00 0.00
12:22 pm 12:22 Sunny 84 28.9 59 15 43 43 SSE 17 28 29.81 1010 10 16 0.00 0.00
12:53 pm 12:53 Sunny 87 30.6 59 15 39 39 SE 18 30 29.87 1012 10 16 0.00 0.00
1:53 pm 13:53 Sunny 91 32.8 61 16.1 37 37 SSE 22 35 29.83 1010 10 16 0.00 0.00
2:53 pm 14:53 Sunny 91 32.8 61 16.1 37 37 S 20 31 29.80 1009 10 16 0.00 0.00
3:53 pm 15:53 Sunny 92 33.3 63 17.2 38 38 S 18 30 29.82 1010 10 16 0.00 0.00
4:53 pm 16:53 Sunny 92 33.3 64 17.8 40 40 SE 7 11 29.84 1011 10 16 0.00 0.00
5:53 pm 17:53 Sunny 92 33.3 64 17.8 40 40 SSE 15 24 29.80 1009 10 16 0.00 0.00
6:53 pm 18:53 Sunny 91 32.8 64 17.8 41 41 SSE 14 22 29.78 1008 10 16 0.00 0.00
7:53 pm 19:53 Sunny 89 31.7 65 18.3 45 45 SSE 14 22 29.79 1009 10 16 0.00 0.00
8:53 pm 20:53 Sunny 85 29.4 64 17.8 50 50 SSE 8 13 29.80 1009 10 16 0.00 0.00
9:53 pm 21:53 Clear 81 27.2 64 17.8 57 57 S 6 9 29.82 1010 10 16 0.00 0.00
10:53 pm 22:53 Clear 78 25.6 64 17.8 62 62 VRB 7 11 29.85 1011 10 16 0.00 0.00
11:53 pm 23:53 Clear 76 24.4 65 18.3 69 69 SE 3 6 29.84 1011 10 16 0.00 0.00

Powered by AerisWeather